Tampa Macdill AFB, FL

10:30 AM EDT on March 26, 2017 (GMT -0400)
MacDill Air Force Base

Weather History for KMCF - November, 2013

Change the Weather History Date:

Sunday, November 24, 2013

  Actual Average Record
Temperature  
Mean Temperature 64 °F -  
Max Temperature 71 °F 74 °F 85 °F (2016)
Min Temperature 57 °F 56 °F 42 °F (2002)
Growing Degree Days 14 (Base 50)    
Moisture  
Dew Point 61 °F    
Average Humidity 85    
Maximum Humidity 100    
Minimum Humidity 73    
Precipitation  
Precipitation 0.00 in - - ()
Sea Level Pressure  
Sea Level Pressure 30.15 in    
Wind  
Wind Speed 11 mph (NE)    
Max Wind Speed 24 mph    
Max Gust Speed 28 mph    
Visibility 10 miles    
Events      
Averages and records for this station are not official NWS values.
T = Trace of Precipitation, MM = Missing Value Source: NWS Daily Summary

Daily Weather History Graph

Daily Weather History Graph

Search for Another Location

Airport or City:

Trip Planner

Search our weather history database for the weather conditions in past years. The results will help you decide how hot, cold, wet, or windy it might be!

Date:

Astronomy

Nov. 24, 2013 Rise Set
Actual Time 6:58 AM EST 5:34 PM EST
Civil Twilight 6:33 AM EST 6:00 PM EST
Nautical Twilight 6:04 AM EST 6:28 PM EST
Astronomical Twilight 5:36 AM EST 6:56 PM EST
Moon 11:43 PM EST (11/24) 12:00 PM EST (11/24)
Length of Visible Light 11h 26m
Length of Day
10h 36m
Waning Gibbous, 61% of the Moon is Illuminated
Nov 24
Waning Gibbous
Nov 25
Last Quarter
Dec 2
New
Dec 9
First Quarter
Dec 17
Full

Hourly Weather History & Observations

Time (EST) Temp. Dew Point Humidity Pressure Visibility Wind Dir Wind Speed Gust Speed Precip Events Conditions
12:58 AM 68.4 °F 67.5 °F 97% 30.07 in 10.0 mi NNE 5.8 mph - N/A   Clear
1:58 AM 66.9 °F 66.4 °F 98% 30.07 in 10.0 mi NNE 4.6 mph - N/A   Clear
2:58 AM 65.7 °F 65.3 °F 99% 30.07 in 10.0 mi NNE 5.8 mph - N/A   Clear
3:58 AM 65.8 °F 65.5 °F 99% 30.06 in 10.0 mi NNE 5.8 mph - N/A   Clear
4:58 AM 65.3 °F 64.9 °F 99% 30.07 in 10.0 mi North 5.8 mph - N/A   Clear
5:58 AM 65.7 °F 65.7 °F 100% 30.09 in 10.0 mi NNE 6.9 mph - N/A   Clear
6:58 AM 65.7 °F 65.7 °F 100% 30.11 in 10.0 mi NNE 8.1 mph - N/A   Scattered Clouds
7:08 AM 66.2 °F 66.2 °F 100% 30.10 in 10.0 mi NNE 10.4 mph - N/A   Mostly Cloudy
7:13 AM 66.2 °F 66.2 °F 100% 30.11 in 10.0 mi NNE 9.2 mph - N/A   Mostly Cloudy
7:48 AM 66.2 °F 64.4 °F 94% 30.12 in 10.0 mi NE 8.1 mph - N/A   Scattered Clouds
7:58 AM 65.5 °F 65.1 °F 99% 30.13 in 10.0 mi NE 6.9 mph - N/A   Scattered Clouds
8:13 AM 66.2 °F 64.4 °F 94% 30.13 in 10.0 mi NE 6.9 mph - N/A   Mostly Cloudy
8:58 AM 66.4 °F 64.2 °F 93% 30.15 in 10.0 mi NE 8.1 mph - N/A   Overcast
9:48 AM 66.2 °F 62.6 °F 88% 30.15 in 10.0 mi ENE 12.7 mph - N/A   Overcast
9:58 AM 66.9 °F 63.5 °F 89% 30.16 in 10.0 mi ENE 13.8 mph - N/A   Overcast
10:58 AM 67.8 °F 62.2 °F 82% 30.18 in 10.0 mi ENE 16.1 mph - N/A   Overcast
11:58 AM 71.1 °F 62.2 °F 74% 30.15 in 10.0 mi ENE 18.4 mph - N/A   Mostly Cloudy
12:08 PM 71.6 °F 62.6 °F 73% 30.14 in 10.0 mi East 17.3 mph - N/A   Scattered Clouds
12:18 PM 71.6 °F 62.6 °F 73% 30.14 in 10.0 mi ENE 15.0 mph - N/A   Mostly Cloudy
12:58 PM 70.9 °F 62.1 °F 74% 30.15 in 10.0 mi NE 12.7 mph - N/A   Overcast
1:58 PM 70.0 °F 61.5 °F 74% 30.14 in 10.0 mi ENE 17.3 mph - N/A   Overcast
2:33 PM 69.8 °F 60.8 °F 73% 30.12 in 10.0 mi ENE 18.4 mph 25.3 mph N/A   Overcast
2:58 PM 69.3 °F 60.4 °F 73% 30.14 in 10.0 mi East 20.7 mph - N/A   Overcast
3:03 PM 68.0 °F 60.8 °F 78% 30.14 in 10.0 mi East 19.6 mph - N/A   Overcast
3:33 PM 68.0 °F 59.0 °F 73% 30.15 in 10.0 mi ENE 18.4 mph - N/A   Overcast
3:43 PM 68.0 °F 59.0 °F 73% 30.15 in 10.0 mi ENE 18.4 mph - N/A   Overcast
3:58 PM 67.6 °F 59.2 °F 74% 30.16 in 10.0 mi ENE 19.6 mph - N/A   Overcast
4:58 PM 64.4 °F 56.8 °F 76% 30.18 in 10.0 mi ENE 20.7 mph 27.6 mph N/A   Overcast
5:58 PM 62.1 °F 55.2 °F 78% 30.19 in 10.0 mi East 24.2 mph 27.6 mph N/A   Overcast
6:13 PM 60.8 °F 55.4 °F 82% 30.19 in 10.0 mi ENE 15.0 mph - N/A   Scattered Clouds
6:58 PM 60.4 °F 54.3 °F 80% 30.21 in 10.0 mi ENE 18.4 mph - N/A   Clear
7:58 PM 59.0 °F 53.2 °F 81% 30.23 in 10.0 mi ENE 18.4 mph - N/A   Scattered Clouds
8:58 PM 58.5 °F 53.1 °F 82% 30.24 in 10.0 mi ENE 13.8 mph 21.9 mph N/A   Mostly Cloudy
9:58 PM 58.3 °F 52.9 °F 82% 30.24 in 10.0 mi ENE 15.0 mph 21.9 mph N/A   Clear
10:58 PM 58.1 °F 52.7 °F 82% 30.23 in 10.0 mi ENE 16.1 mph - N/A   Partly Cloudy
11:58 PM 57.9 °F 52.9 °F 83% 30.23 in 10.0 mi ENE 15.0 mph - N/A   Partly Cloudy